| time (UTC) | temp F | wind direction | speed knots | gust knots | rain 1hr in | rain 24hr in | rain mn in | humidity % | barometer mb |
| 20260504184513 | 53 | 281 | 1.7 | 4.3 | 0.00 | 0.20 | 0.05 | 77 | 1011.0 |
| 20260504182512 | 54 | 304 | 3.5 | 7.0 | 0.00 | 0.20 | 0.05 | 73 | 1010.9 |
| 20260504180512 | 55 | 0 | 4.3 | 8.7 | 0.00 | 0.20 | 0.05 | 67 | 1010.7 |
| 20260504173512 | 57 | 259 | 7.0 | 11.3 | 0.00 | 0.20 | 0.05 | 63 | 1010.7 |
| 20260504172512 | 58 | 246 | 5.2 | 10.4 | 0.00 | 0.20 | 0.05 | 63 | 1010.7 |
| 20260504171512 | 58 | 267 | 6.1 | 13.9 | 0.00 | 0.20 | 0.05 | 59 | 1010.7 |
| 20260504170512 | 58 | 272 | 7.0 | 13.9 | 0.00 | 0.20 | 0.05 | 60 | 1010.7 |
| 20260504100512 | 57 | 321 | 8.7 | 15.6 | 0.00 | 0.20 | 0.05 | 73 | 1009.9 |
| 20260504045513 | 51 | 311 | 2.6 | 5.2 | 0.00 | 0.19 | 0.04 | 96 | 1006.1 |
| 20260504043513 | 51 | 339 | 2.6 | 5.2 | 0.00 | 0.19 | 0.04 | 96 | 1006.0 |
| 20260504040512 | 52 | 346 | 2.6 | 7.8 | 0.00 | 0.19 | 0.04 | 96 | 1005.8 |
| 20260504035513 | 53 | 346 | 4.3 | 8.7 | 0.00 | 0.19 | 0.04 | 96 | 1005.8 |
| 20260504032512 | 54 | 234 | 7.8 | 12.2 | 0.00 | 0.19 | 0.04 | 96 | 1005.6 |
| 20260504025512 | 54 | 237 | 7.8 | 12.2 | 0.01 | 0.19 | 0.04 | 96 | 1005.6 |
| 20260504024512 | 54 | 229 | 6.1 | 13.0 | 0.01 | 0.19 | 0.04 | 96 | 1005.6 |
| 20260504022512 | 53 | 197 | 2.6 | 5.2 | 0.01 | 0.19 | 0.04 | 96 | 1005.7 |
| 20260504021513 | 53 | 324 | 0.0 | 0.0 | 0.01 | 0.19 | 0.04 | 96 | 1005.8 |
| 20260504020512 | 53 | 318 | 0.0 | 0.0 | 0.00 | 0.18 | 0.03 | 96 | 1005.7 |
| 20260504015512 | 53 | 323 | 0.0 | 0.0 | 0.01 | 0.18 | 0.03 | 96 | 1005.6 |
| 20260504014512 | 53 | 318 | 0.0 | 0.0 | 0.01 | 0.18 | 0.03 | 96 | 1005.7 |
| 20260504010512 | 53 | 318 | 0.9 | 2.6 | 0.01 | 0.18 | 0.03 | 96 | 1005.9 |
| 20260504005512 | 54 | 313 | 0.0 | 1.7 | 0.00 | 0.17 | 0.02 | 95 | 1005.9 |
| 20260504004513 | 54 | 309 | 0.0 | 0.0 | 0.00 | 0.17 | 0.02 | 96 | 1005.8 |
| 20260504003512 | 54 | 341 | 0.0 | 0.0 | 0.01 | 0.17 | 0.02 | 96 | 1005.9 |
| 20260504002512 | 54 | 315 | 0.0 | 0.9 | 0.01 | 0.17 | 0.02 | 96 | 1006.0 |
| 20260504001513 | 54 | 340 | 0.0 | 0.9 | 0.01 | 0.17 | 0.02 | 96 | 1005.9 |
| 20260504000513 | 54 | 313 | 0.0 | 0.0 | 0.01 | 0.17 | 0.02 | 96 | 1006.0 |
| 20260503234512 | 54 | 314 | 0.0 | 0.9 | 0.02 | 0.17 | 0.02 | 95 | 1006.3 |
| 20260503233512 | 54 | 324 | 0.0 | 0.9 | 0.01 | 0.17 | 0.02 | 95 | 1006.6 |
| 20260503232512 | 54 | 334 | 0.0 | 1.7 | 0.02 | 0.17 | 0.02 | 95 | 1006.7 |
| 20260503231513 | 54 | 309 | 0.0 | 1.7 | 0.02 | 0.17 | 0.02 | 95 | 1006.7 |
| 20260503230512 | 54 | 319 | 0.9 | 2.6 | 0.02 | 0.17 | 0.02 | 95 | 1007.1 |
| 20260503225512 | 54 | 304 | 0.9 | 7.0 | 0.01 | 0.16 | 0.01 | 95 | 1007.2 |
| 20260503223512 | 54 | 141 | 3.5 | 6.1 | 0.03 | 0.16 | 0.01 | 95 | 1007.1 |
| 20260503221509 | 53 | 107 | 0.0 | 2.6 | 0.07 | 0.15 | 0.00 | 95 | 1007.2 |
| 20260503215513 | 53 | 90 | 2.6 | 4.3 | 0.08 | 0.15 | 0.15 | 94 | 1007.4 |
| 20260503214513 | 54 | 90 | 1.7 | 4.3 | 0.07 | 0.14 | 0.14 | 94 | 1007.5 |
| 20260503213513 | 53 | 29 | 0.0 | 1.7 | 0.07 | 0.13 | 0.13 | 94 | 1007.9 |
| 20260503212513 | 53 | 24 | 0.0 | 0.0 | 0.05 | 0.09 | 0.09 | 94 | 1007.5 |
| 20260503204513 | 53 | 58 | 2.6 | 5.2 | 0.07 | 0.07 | 0.07 | 92 | 1007.3 |
| 20260503203512 | 54 | 105 | 1.7 | 4.3 | 0.06 | 0.06 | 0.06 | 92 | 1007.6 |
| 20260503202512 | 54 | 101 | 0.0 | 1.7 | 0.05 | 0.05 | 0.05 | 91 | 1008.1 |
| 20260503200512 | 53 | 200 | 0.0 | 5.2 | 0.00 | 0.00 | 0.00 | 90 | 1008.6 |
| 20260503193513 | 54 | 49 | 4.3 | 5.2 | 0.00 | 0.00 | 0.00 | 89 | 1008.1 |
| 20260503191513 | 54 | 31 | 2.6 | 5.2 | 0.00 | 0.00 | 0.00 | 89 | 1008.1 |
| 20260503190512 | 54 | 36 | 2.6 | 7.0 | 0.00 | 0.00 | 0.00 | 89 | 1008.0 |